Regional Weather Roundup
Issued by NWS Memphis, TN

Home | Current Version | Previous Version | Text Only | Print | Product List | Glossary On
Versions: 1 2 3 4 5 6 7 8 9 10 11 12 13 14 15 16 17 18 19 20 21 22 23 24 25 26 27 28 29 30 31 32 33 34 35 36 37 38 39 40 41 42 43 44 45 46 47 48 49 50
000
ASUS44 KMEG 262010
RWRMEG
MEMPHIS CWA HOURLY WEATHER ROUNDUP
NATIONAL WEATHER SERVICE MEMPHIS TN
200 PM CST FRI DEC 26 2014

...WEST TENNESSEE...

CITY           SKY/WX    TMP DP  RH WIND       PRES   REMARKS
MEMPHIS INTL   CLOUDY    55  37  50 S10       30.18S
NWS MEMPHIS      N/A     55 N/A N/A MISG        N/A
JACKSON        CLOUDY    53  38  56 SE5       30.19F
LEXINGTON      SUNNY     52  37  58 S7        30.20F
SAVANNAH       SUNNY     48  39  71 S7        30.23S
DYERSBURG      PTSUNNY   52  34  50 S9        30.19R
UNION CITY     SUNNY     52  41  66 S12       30.15F
PARIS          SUNNY     50  39  66 S6        30.19S


...EASTERN ARKANSAS...

CITY           SKY/WX    TMP DP  RH WIND       PRES   REMARKS
JONESBORO      PTSUNNY   54  43  66 S17       30.13F
WEST MEMPHIS   CLOUDY    54  41  61 S17       30.16F
BATESVILLE     CLOUDY    52  37  58 S10       30.09F
NEWPORT        CLOUDY    55  42  61 S12       30.12F
WALNUT RIDGE   PTSUNNY   52  39  62 S12       30.11F
BLYTHEVILLE    PTSUNNY   56  43  61 S10       30.16F
STUTTGART      CLOUDY    55  43  62 SE13      30.12F
PINE BLUFF     CLOUDY    55  45  68 SE7       30.11F
MONTICELLO     LGT RAIN  54  47  77 SE6       30.12F


...NORTH MISSISSIPPI...

CITY           SKY/WX    TMP DP  RH WIND       PRES   REMARKS
TUPELO         CLOUDY    50  39  66 MISG      30.22F
OXFORD         CLOUDY    48  37  66 SE6       30.22S
OLIVE BRANCH   PTSUNNY   52  37  58 SE10      30.18F
TUNICA         CLOUDY    52  41  66 SE9       30.17F
CLARKSDALE     CLOUDY    54  46  76 SE10      30.16F
CORINTH        CLOUDY    50  39  66 SE9       30.22R
GRENADA        CLOUDY    50  43  76 CALM      30.20F
COLUMBUS       PTSUNNY   57  42  58 SE10      30.21F
STARKVILLE     FAIR      54  45  71 S5        30.22R
GOLDEN TRIANGL PTSUNNY   55  45  67 S14       30.21F


...SOUTHEAST MISSOURI...

CITY           SKY/WX    TMP DP  RH WIND       PRES   REMARKS
WEST PLAINS    CLOUDY    52  43  71 S10       30.05F
POPLAR BLUFF   CLOUDY    51  40  65 S10       30.12F
CAPE GIRARDEAU PTSUNNY   53  44  71 S15       30.13F


...NORTHWEST ALABAMA...

CITY           SKY/WX    TMP DP  RH WIND       PRES   REMARKS
MUSCLE SHOALS  CLOUDY    51  39  63 SE6       30.26S


...MIDDLE TENNESSEE...

CITY           SKY/WX    TMP DP  RH WIND       PRES   REMARKS
NASHVILLE      PTSUNNY   54  38  54 SE10      30.22F
CLARKSVILLE    MOSUNNY   57  40  52 S12       30.19F
COLUMBIA       SUNNY     48  45  87 S7        30.21F


...WESTERN KENTUCKY...

CITY           SKY/WX    TMP DP  RH WIND       PRES   REMARKS
PADUCAH        MOSUNNY   59  42  53 SW12      30.14F
FORT CAMPBELL  MOSUNNY   56  39  52 S8        30.18F


...CENTRAL ARKANSAS...

CITY           SKY/WX    TMP DP  RH WIND       PRES   REMARKS
LITTLE ROCK    CLOUDY    55  41  59 SE8       30.09F


SKY/WX REPORTED AS FAIR MEANS FEW OR NO CLOUDS BELOW
12 THOUSAND FEET.



USA.gov is the U.S. government's official web portal to all federal, state and local government web resources and services.